EA4BPO Weather Reports


Display with metric or nautical units.
time (UTC)temp
F
wind
direction
speed
MPH
gust
MPH
rain 1hr
in
rain 24hr
in
rain mn
in
humidity
%
barometer
mb
20260508172024 64 257 1.0 7.0 0.00 0.05 0.05 54 1009.5
20260508171503 64 222 2.0 7.0 0.00 0.05 0.05 55 1009.2
20260508171003 63 218 3.0 9.0 0.00 0.05 0.05 57 1009.2
20260508170503 63 242 4.0 9.0 0.00 0.05 0.05 56 1009.7
20260508170004 63 254 4.0 8.0 0.00 0.05 0.05 56 1009.4
20260508165503 65 215 3.0 9.0 0.00 0.05 0.05 55 1009.5
20260508165004 65 190 3.0 9.0 0.00 0.05 0.05 53 1009.1
20260508164504 66 200 2.0 6.0 0.00 0.05 0.05 54 1009.1
20260508164024 65 204 2.0 7.0 0.00 0.05 0.05 55 1009.5
20260508163503 65 224 2.0 7.0 0.00 0.05 0.05 54 1009.5
20260508163003 65 289 1.0 4.0 0.00 0.05 0.05 54 1009.5
20260508162503 66 183 1.0 3.0 0.00 0.05 0.05 55 1009.7
20260508162003 65 240 2.0 7.0 0.00 0.05 0.05 56 1009.5
20260508161504 64 287 2.0 7.0 0.00 0.05 0.05 58 1009.4
20260508161024 63 240 2.0 7.0 0.00 0.05 0.05 60 1009.5
20260508160503 63 198 2.0 7.0 0.00 0.05 0.05 61 1009.6
20260508160003 62 233 2.0 6.0 0.00 0.05 0.05 62 1009.6
20260508155503 61 300 3.0 7.0 0.00 0.05 0.05 64 1009.4
20260508155003 61 329 3.0 7.0 0.00 0.05 0.05 66 1009.5
20260508154503 62 300 2.0 10.0 0.00 0.05 0.05 65 1009.5
20260508154003 62 313 3.0 11.0 0.00 0.05 0.05 65 1009.5
20260508153503 61 325 4.0 11.0 0.00 0.05 0.05 67 1009.5
20260508153024 60 283 4.0 11.0 0.00 0.05 0.05 68 1009.5
20260508152503 61 273 5.0 11.0 0.00 0.05 0.05 69 1009.7
20260508152003 61 272 7.0 13.0 0.00 0.05 0.05 69 1009.7
20260508151503 61 261 8.0 13.0 0.00 0.05 0.05 67 1009.6
20260508151003 62 220 6.0 13.0 0.00 0.05 0.05 62 1009.6
20260508150524 63 197 6.0 13.0 0.00 0.05 0.05 56 1009.7
20260508150004 62 212 7.0 16.0 0.00 0.05 0.05 59 1009.6
20260508145524 62 207 7.0 16.0 0.00 0.05 0.05 59 1009.8
20260508145003 62 198 8.0 15.0 0.00 0.05 0.05 61 1009.8
20260508144503 61 190 8.0 14.0 0.00 0.05 0.05 61 1010.0
20260508144003 60 178 6.0 13.0 0.00 0.05 0.05 64 1010.0
20260508143503 60 170 5.0 11.0 0.00 0.05 0.05 68 1009.9
20260508143004 60 170 5.0 9.0 0.00 0.05 0.05 70 1009.9
20260508142524 60 188 5.0 9.0 0.00 0.05 0.05 70 1009.8
20260508142003 60 182 5.0 9.0 0.00 0.05 0.05 69 1010.0
20260508141524 61 158 6.0 13.0 0.00 0.05 0.05 68 1010.1
20260508141024 60 164 6.0 13.0 0.00 0.05 0.05 68 1010.1
20260508140504 60 176 5.0 10.0 0.00 0.05 0.05 71 1010.2
20260508140004 60 172 4.0 10.0 0.00 0.05 0.05 69 1010.1
20260508135503 61 161 2.0 8.0 0.00 0.05 0.05 66 1010.2
20260508135003 62 164 3.0 8.0 0.00 0.05 0.05 69 1010.1
20260508134503 60 144 3.0 8.0 0.00 0.05 0.05 71 1010.4
20260508134024 59 108 3.0 7.0 0.00 0.05 0.05 72 1010.2
20260508133503 59 100 2.0 7.0 0.00 0.05 0.05 73 1010.3
20260508133003 60 87 1.0 4.0 0.00 0.05 0.05 73 1010.4
20260508132503 60 29 1.0 3.0 0.00 0.05 0.05 72 1010.4
20260508132003 59 34 1.0 3.0 0.00 0.41 0.05 75 1010.3
20260508131503 58 87 1.0 3.0 0.00 0.41 0.05 75 1010.2
20260508131024 59 95 1.0 3.0 0.00 0.41 0.05 74 1010.4
20260508130524 58 90 2.0 8.0 0.00 0.41 0.05 74 1010.4
20260508130003 57 71 3.0 8.0 0.00 0.42 0.05 78 1010.6
20260508125503 57 44 2.0 7.0 0.00 0.43 0.05 82 1010.3
20260508125003 57 51 3.0 9.0 0.00 0.46 0.05 84 1010.3
20260508124503 55 71 4.0 9.0 0.00 0.48 0.05 86 1010.5
20260508124024 55 80 5.0 9.0 0.00 0.50 0.05 87 1010.6
20260508123503 55 84 4.0 9.0 0.00 0.50 0.05 86 1011.1
20260508123003 55 91 3.0 7.0 0.00 0.51 0.05 83 1011.0
20260508122524 55 86 2.0 6.0 0.00 0.52 0.05 82 1011.2
20260508122003 55 56 1.0 3.0 0.00 0.53 0.05 81 1011.2
20260508121524 56 12 1.0 3.0 0.00 0.53 0.05 81 1011.1
20260508121003 56 337 1.0 4.0 0.00 0.53 0.05 81 1011.1
20260508120503 55 360 2.0 4.0 0.00 0.53 0.05 81 1011.1
20260508120003 55 24 2.0 4.0 0.00 0.53 0.05 81 1011.2
20260508115503 55 30 1.0 3.0 0.00 0.53 0.05 81 1011.3
20260508115003 54 350 1.0 2.0 0.01 0.53 0.05 83 1011.2
20260508114503 54 347 1.0 3.0 0.01 0.53 0.05 85 1011.5
20260508114003 54 5 1.0 3.0 0.01 0.53 0.05 86 1011.3
20260508113503 53 9 1.0 3.0 0.01 0.53 0.05 87 1011.4
20260508113024 53 353 1.0 4.0 0.01 0.53 0.05 87 1011.3
20260508112503 53 9 2.0 6.0 0.01 0.53 0.05 88 1011.2
20260508112024 53 13 2.0 6.0 0.01 0.53 0.05 89 1011.2
20260508111503 53 13 2.0 4.0 0.02 0.53 0.05 89 1011.5
20260508111024 53 21 2.0 3.0 0.05 0.53 0.05 89 1011.5
20260508110503 53 48 2.0 3.0 0.05 0.53 0.05 89 1011.4
20260508110003 52 50 2.0 3.0 0.05 0.53 0.05 89 1011.5
20260508105503 52 356 2.0 3.0 0.05 0.53 0.05 89 1011.7
20260508105003 52 3 1.0 3.0 0.04 0.52 0.04 89 1011.5
20260508104503 52 44 1.0 2.0 0.04 0.52 0.04 88 1011.8
20260508104024 52 355 1.0 2.0 0.04 0.52 0.04 88 1011.6
20260508103503 52 313 0.0 1.0 0.04 0.52 0.04 87 1011.9
20260508103003 53 96 0.0 2.0 0.04 0.52 0.04 87 1011.8
20260508102503 53 81 1.0 2.0 0.04 0.52 0.04 86 1011.8
20260508102003 53 148 1.0 2.0 0.04 0.52 0.04 85 1011.7
20260508101503 53 193 2.0 4.0 0.03 0.51 0.03 84 1011.7
20260508101003 53 203 3.0 6.0 0.00 0.48 0.00 83 1011.9
20260508100503 53 188 2.0 6.0 0.00 0.48 0.00 82 1011.9
20260508100003 53 156 1.0 3.0 0.00 0.48 0.00 81 1011.8
20260508095503 54 136 1.0 3.0 0.00 0.48 0.00 82 1011.5
20260508095003 54 113 1.0 3.0 0.00 0.48 0.00 81 1011.2
20260508094503 54 89 1.0 3.0 0.00 0.48 0.00 80 1011.4
20260508094003 53 109 1.0 4.0 0.00 0.48 0.00 81 1011.6
20260508093503 53 101 2.0 4.0 0.00 0.48 0.00 81 1011.5
20260508093024 53 77 2.0 6.0 0.00 0.48 0.00 81 1011.3
20260508092503 53 65 1.0 6.0 0.00 0.48 0.00 81 1011.6
20260508092003 53 44 1.0 6.0 0.00 0.48 0.00 81 1011.3
20260508091503 54 37 1.0 6.0 0.00 0.48 0.00 81 1011.5
20260508091024 54 23 1.0 3.0 0.00 0.48 0.00 80 1011.5
20260508090503 54 14 1.0 3.0 0.00 0.48 0.00 81 1011.4
20260508090003 53 66 2.0 4.0 0.00 0.48 0.00 83 1011.3
20260508085503 52 73 2.0 8.0 0.00 0.48 0.00 84 1011.4
20260508085003 51 128 2.0 10.0 0.00 0.48 0.00 84 1011.4
20260508084503 51 151 2.0 10.0 0.00 0.48 0.00 84 1011.7
20260508084003 51 83 1.0 4.0 0.00 0.48 0.00 85 1011.6
20260508083503 51 82 2.0 8.0 0.00 0.48 0.00 85 1011.5
20260508083003 51 87 3.0 8.0 0.00 0.48 0.00 86 1011.3
20260508082503 51 80 3.0 8.0 0.00 0.48 0.00 86 1011.3
20260508082003 51 57 4.0 8.0 0.00 0.48 0.00 86 1010.8
20260508081504 50 56 4.0 8.0 0.00 0.48 0.00 86 1010.6
20260508081003 51 62 3.0 7.0 0.00 0.48 0.00 86 1011.3
20260508080503 51 57 3.0 7.0 0.00 0.48 0.00 86 1011.3
20260508080003 50 52 4.0 8.0 0.00 0.48 0.00 87 1011.1
20260508075503 50 56 3.0 8.0 0.00 0.48 0.00 88 1011.2
20260508075003 49 63 3.0 6.0 0.00 0.48 0.00 88 1011.1
20260508074501 49 56 3.0 6.0 0.00 0.48 0.00 88 1011.3
20260508074001 49 49 2.0 6.0 0.00 0.48 0.00 88 1011.2